Weather History for Ortonville, MN

Change the Weather History Date:

Saturday, October 20, 2012

  Actual Average (KAQP) Record (KAQP)
Temperature  
Mean Temperature 44 °F -  
Max Temperature 53 °F 53 °F 75 °F (2003)
Min Temperature 35 °F 33 °F 21 °F (2011)
Degree Days  
Heating Degree Days 21    
Moisture  
Dew Point 40 °F    
Average Humidity 88    
Maximum Humidity 100    
Minimum Humidity 72    
Precipitation  
Precipitation 0.00 in - - ()
Sea Level Pressure  
Sea Level Pressure 29.72 in    
Wind  
Wind Speed 6 mph (SSE)    
Max Wind Speed 18 mph    
Max Gust Speed 21 mph    
Visibility 8 miles    
Events Fog    
Averages and records for this station are not official NWS values.
T = Trace of Precipitation, MM = Missing Value Source: NWS Daily Summary

Daily Weather History Graph

Daily Weather History Graph

Search for Another Location

Airport:

Trip Planner

Search our weather history database for the weather conditions in past years. The results will help you decide how hot, cold, wet, or windy it might be!

Date:

Astronomy

Oct. 20, 2012 Rise Set
Actual Time 7:49 AM CDT 6:30 PM CDT
Civil Twilight 7:19 AM CDT 7:00 PM CDT
Nautical Twilight 6:44 AM CDT 7:35 PM CDT
Astronomical Twilight 6:10 AM CDT 8:09 PM CDT
Moon 1:34 PM CDT (10/20) 11:10 PM CDT (10/20)
Length of Visible Light 11h 41m
Length of Day
10h 41m
Waxing Crescent, 34% of the Moon is Illuminated
Oct 20
Waxing Crescent
Oct 21
First Quarter
Oct 29
Full
Nov 6
Last Quarter
Nov 13
New

Hourly Weather History & Observations

Time (CDT) Temp. Windchill Dew Point Humidity Pressure Visibility Wind Dir Wind Speed Gust Speed Precip Events Conditions
12:14 AM 41.0 °F 39.0 °F 39.2 °F 93% 29.76 in 10.0 mi WNW 3.5 mph - N/A   Overcast
12:34 AM 41.0 °F 38.0 °F 37.4 °F 87% 29.75 in 10.0 mi West 4.6 mph - N/A   Overcast
12:54 AM 41.0 °F - 37.4 °F 87% 29.74 in 10.0 mi Calm Calm - N/A   Overcast
1:14 AM 41.0 °F - 37.4 °F 87% 29.74 in 10.0 mi Calm Calm - N/A   Overcast
1:33 AM 41.0 °F - 37.4 °F 87% 29.75 in 10.0 mi Calm Calm - N/A   Overcast
1:54 AM 41.0 °F - 39.2 °F 93% 29.75 in 10.0 mi Calm Calm - N/A   Overcast
2:14 AM 41.0 °F - 39.2 °F 93% 29.75 in 10.0 mi Calm Calm - N/A   Overcast
2:33 AM 41.0 °F - 37.4 °F 87% 29.75 in 10.0 mi Calm Calm - N/A   Overcast
2:54 AM 41.0 °F - 37.4 °F 87% 29.76 in 10.0 mi Calm Calm - N/A   Overcast
3:14 AM 41.0 °F - 37.4 °F 87% 29.76 in 10.0 mi Calm Calm - N/A   Overcast
3:34 AM 41.0 °F - 37.4 °F 87% 29.74 in 10.0 mi Calm Calm - N/A   Overcast
3:54 AM 41.0 °F - 39.2 °F 93% 29.73 in 10.0 mi Calm Calm - N/A   Mostly Cloudy
4:14 AM 41.0 °F - 37.4 °F 87% 29.73 in 10.0 mi Calm Calm - N/A   Scattered Clouds
4:34 AM 39.2 °F 37.0 °F 37.4 °F 93% 29.73 in 10.0 mi SSE 3.5 mph - N/A   Clear
4:54 AM 39.2 °F - 37.4 °F 93% 29.75 in 7.0 mi Calm Calm - N/A   Clear
5:14 AM 37.4 °F - 35.6 °F 93% 29.73 in 1.0 mi Calm Calm - N/A   Mostly Cloudy
5:34 AM 37.4 °F 34.9 °F 35.6 °F 93% 29.74 in 0.8 mi South 3.5 mph - N/A   Overcast
5:53 AM 37.4 °F 34.9 °F 35.6 °F 93% 29.74 in 0.2 mi South 3.5 mph - N/A Fog Fog
6:14 AM 37.4 °F 33.8 °F 35.6 °F 93% 29.73 in 0.8 mi SE 4.6 mph - N/A   Overcast
6:34 AM 35.6 °F - 33.8 °F 93% 29.74 in 0.8 mi Calm Calm - N/A   Overcast
6:53 AM 35.6 °F - 33.8 °F 93% 29.75 in 1.0 mi Calm Calm - N/A   Mostly Cloudy
7:14 AM 35.6 °F 32.8 °F 35.6 °F 100% 29.75 in 1.2 mi SSW 3.5 mph - N/A   Overcast
7:34 AM 35.6 °F 31.7 °F 35.6 °F 100% 29.75 in 1.2 mi SW 4.6 mph - N/A   Overcast
7:53 AM 35.6 °F 30.7 °F 35.6 °F 100% 29.76 in 0.2 mi SW 5.8 mph - N/A Fog Fog
8:14 AM 35.6 °F 31.7 °F 35.6 °F 100% 29.76 in 0.2 mi South 4.6 mph - N/A Fog Fog
8:34 AM 37.4 °F 33.8 °F 35.6 °F 93% 29.76 in 0.2 mi South 4.6 mph - N/A Fog Fog
8:54 AM 37.4 °F 32.1 °F 35.6 °F 93% 29.76 in 0.8 mi South 6.9 mph - N/A   Overcast
9:14 AM 37.4 °F 32.8 °F 35.6 °F 93% 29.77 in 7.0 mi South 5.8 mph - N/A   Overcast
9:34 AM 37.4 °F 32.1 °F 37.4 °F 100% 29.77 in 4.0 mi South 6.9 mph - N/A   Overcast
9:54 AM 39.2 °F 35.9 °F 37.4 °F 93% 29.77 in 5.0 mi SSW 4.6 mph - N/A   Overcast
10:14 AM 39.2 °F 33.6 °F 37.4 °F 93% 29.76 in 10.0 mi SSE 8.1 mph - N/A   Overcast
10:33 AM 39.2 °F 34.2 °F 37.4 °F 93% 29.76 in 10.0 mi SSE 6.9 mph - N/A   Overcast
10:54 AM 39.2 °F 34.2 °F 37.4 °F 93% 29.75 in 10.0 mi SSE 6.9 mph - N/A   Overcast
11:14 AM 41.0 °F 35.2 °F 39.2 °F 93% 29.75 in 10.0 mi SSE 9.2 mph - N/A   Overcast
11:34 AM 41.0 °F 35.2 °F 39.2 °F 93% 29.75 in 10.0 mi SSE 9.2 mph - N/A   Overcast
11:54 AM 42.8 °F 37.0 °F 39.2 °F 87% 29.74 in 10.0 mi SSE 10.4 mph 17.3 mph N/A   Overcast
12:14 PM 42.8 °F 38.0 °F 39.2 °F 87% 29.74 in 10.0 mi SSE 8.1 mph - N/A   Overcast
12:34 PM 44.6 °F 39.7 °F 41.0 °F 87% 29.73 in 10.0 mi SSE 9.2 mph - N/A   Overcast
12:54 PM 46.4 °F 41.1 °F 41.0 °F 81% 29.71 in 10.0 mi SE 11.5 mph - N/A   Mostly Cloudy
1:14 PM 48.2 °F - 42.8 °F 82% 29.70 in 10.0 mi SE 12.7 mph - N/A   Mostly Cloudy
1:34 PM 48.2 °F - 42.8 °F 82% 29.71 in 10.0 mi SSE 9.2 mph - N/A   Scattered Clouds
1:53 PM 50.0 °F - 42.8 °F 76% 29.69 in 10.0 mi SSE 10.4 mph - N/A   Clear
2:14 PM 51.8 °F - 44.6 °F 76% 29.69 in 10.0 mi SE 13.8 mph - N/A   Clear
2:34 PM 51.8 °F - 44.6 °F 76% 29.68 in 10.0 mi SSE 12.7 mph 17.3 mph N/A   Clear
2:54 PM 53.6 °F - 44.6 °F 72% 29.68 in 10.0 mi SSE 11.5 mph 18.4 mph N/A   Clear
3:14 PM 53.6 °F - 44.6 °F 72% 29.67 in 10.0 mi SE 13.8 mph 17.3 mph N/A   Clear
3:34 PM 53.6 °F - 46.4 °F 77% 29.67 in 10.0 mi SE 13.8 mph 19.6 mph N/A   Clear
3:54 PM 53.6 °F - 44.6 °F 72% 29.66 in 10.0 mi SE 15.0 mph 19.6 mph N/A   Clear
4:14 PM 53.6 °F - 46.4 °F 77% 29.67 in 10.0 mi SE 16.1 mph - N/A   Clear
4:34 PM 53.6 °F - 46.4 °F 77% 29.66 in 10.0 mi SE 16.1 mph 19.6 mph N/A   Clear
4:54 PM 53.6 °F - 44.6 °F 72% 29.67 in 10.0 mi SE 16.1 mph - N/A   Clear
5:14 PM 51.8 °F - 44.6 °F 76% 29.67 in 10.0 mi SE 18.4 mph - N/A   Clear
5:33 PM 50.0 °F - 44.6 °F 82% 29.66 in 10.0 mi SE 13.8 mph - N/A   Clear
5:54 PM 50.0 °F - 44.6 °F 82% 29.66 in 10.0 mi SE 15.0 mph - N/A   Clear
6:14 PM 50.0 °F - 44.6 °F 82% 29.66 in 10.0 mi SE 12.7 mph - N/A   Clear
6:33 PM 48.2 °F - 44.6 °F 87% 29.67 in 10.0 mi SE 12.7 mph 20.7 mph N/A   Clear
6:54 PM 48.2 °F - 44.6 °F 87% 29.67 in 10.0 mi SE 12.7 mph - N/A   Clear
7:14 PM 46.4 °F 40.7 °F 42.8 °F 87% 29.67 in 10.0 mi SE 12.7 mph - N/A   Clear
7:34 PM 46.4 °F 40.7 °F 42.8 °F 87% 29.67 in 10.0 mi SE 12.7 mph - N/A   Clear
7:54 PM 46.4 °F 40.1 °F 42.8 °F 87% 29.68 in 10.0 mi SE 15.0 mph - N/A   Mostly Cloudy
8:14 PM 46.4 °F 40.7 °F 42.8 °F 87% 29.68 in 10.0 mi SE 12.7 mph - N/A   Overcast
8:34 PM 46.4 °F 40.7 °F 42.8 °F 87% 29.68 in 10.0 mi SE 12.7 mph - N/A   Mostly Cloudy
8:54 PM 46.4 °F 40.7 °F 42.8 °F 87% 29.67 in 10.0 mi SE 12.7 mph - N/A   Scattered Clouds
9:14 PM 46.4 °F 40.4 °F 42.8 °F 87% 29.69 in 10.0 mi SE 13.8 mph - N/A   Clear
9:34 PM 46.4 °F 40.7 °F 42.8 °F 87% 29.68 in 10.0 mi SE 12.7 mph - N/A   Clear
9:54 PM 46.4 °F 40.7 °F 42.8 °F 87% 29.67 in 10.0 mi SE 12.7 mph - N/A   Clear
10:13 PM 46.4 °F 40.7 °F 42.8 °F 87% 29.67 in 10.0 mi SE 12.7 mph - N/A   Clear
10:34 PM 46.4 °F 40.4 °F 42.8 °F 87% 29.67 in 10.0 mi SE 13.8 mph - N/A   Clear
10:54 PM 46.4 °F 40.7 °F 42.8 °F 87% 29.67 in 10.0 mi SE 12.7 mph - N/A   Clear
11:34 PM 44.6 °F 38.8 °F 42.8 °F 93% 29.68 in 10.0 mi SE 11.5 mph - N/A   Clear
11:54 PM 44.6 °F 38.8 °F 42.8 °F 93% 29.69 in 10.0 mi SE 11.5 mph - N/A   Clear